Regional Weather Roundup
Issued by NWS Spokane, WA

Home | Current Version | Previous Version | Text Only | Print | Product List | Glossary On
Versions: 1 2 3 4 5 6 7 8 9 10 11 12 13 14 15 16 17 18 19 20 21 22 23 24 25 26 27 28 29 30 31 32 33 34 35 36 37 38 39 40 41 42 43 44 45 46 47 48 49 50
000
NZUS01 KOTX 272125
RWROTX

Eastern Washington/Northern Idaho Roundup
National Weather Service, Spokane WA
200 PM PDT THU APR 27 2017

Note: "fair" indicated few or no clouds below 12,000 feet with no
significant weather and/or obstructions to visibility.

...Northeast Washington and Northern Idaho Panhandle...

CITY           SKY/WX    TMP DP  RH WIND       PRES   REMARKS
Spokane Intl   LGT RAIN  46  34  62 SW15      29.88R
Spokane Downto CLOUDY    48  35  60 W10G20    29.89R
Coeur d Alene  PTSUNNY   43  37  81 S8        29.91R
Deer Park      LGT RAIN  45  33  63 NE3       29.87S
Sandpoint      CLOUDY    43  37  81 S9        29.88S
Bonners Ferry  MOCLDY    46  34  61 S15G21    29.81S

...Southeast Washington and southern Idaho Panhandle...

CITY           SKY/WX    TMP DP  RH WIND       PRES   REMARKS
Walla Walla    PTSUNNY   56  33  42 SW16G25   29.96F
Pullman/Moscow CLOUDY    44  34  67 W17G24    29.94S
Lewiston       CLOUDY    53  29  39 NW8       29.93S
Lowell           N/A     42  37  82 S3        29.99S
Grangeville    FAIR      41  34  75 S14G24    29.92S

...Columbia Basin...

CITY           SKY/WX    TMP DP  RH WIND       PRES   REMARKS
Ephrata        PTSUNNY   61  22  22 W13       29.88S
Moses Lake     CLOUDY    62  23  22 SW13G20   29.89S
Pasco          CLOUDY    60  25  26 SW10G21   29.95F
Richland       CLOUDY    60  27  28 SW7       29.94S
Hermiston      FAIR      58  33  39 W21G29    29.96F
Pendleton      PTSUNNY   54  33  45 W14G24    29.96F

...East Slopes Cascades...

CITY           SKY/WX    TMP DP  RH WIND       PRES   REMARKS
The Dalles     FAIR      58  37  45 W25G32    30.04S
Yakima         PTSUNNY   62  28  27 W16G22    29.94F
Ellensburg     FAIR      53  32  44 W30G40    29.94S
Stampede Pass  CLOUDY    33  33 100 VRB6      29.97S WCI  28
Wenatchee      FAIR      57  22  25 NW20G30   29.89F
Omak           FAIR      58  26  29 VRB3      29.86S
Chelan           N/A     57  23  26 VRB5        N/A
Sunnyside      MOCLDY    58  29  32 W6        29.94S

...Southern British Columbia...

CITY           SKY/WX    TMP DP  RH WIND       PRES   REMARKS
Penticton      LGT RAIN  54  37  54 N17       29.89S
Castlegar      CLOUDY    54  39  58 S14G20    29.79S
Cranbrook      PTSUNNY   46  37  71 E7        29.71R
Osoyoos          N/A     57  34  41 NW8         N/A
Creston          N/A     48  37  66 S10G20      N/A

...Western Montana...

CITY           SKY/WX    TMP DP  RH WIND       PRES   REMARKS
Kalispell      LGT RAIN  41  39  93 SE13      29.80R
Libby            N/A     48  28  46 CALM      29.80R
Missoula       LGT RAIN  47  29  49 W9G22     29.83S

...Neighboring Cities...

CITY           SKY/WX    TMP DP  RH WIND       PRES   REMARKS
Seattle        LGT RAIN  49  41  74 S15G23    30.07S
Portland       PTSUNNY   55  40  56 W8G20     30.12S
Boise          CLOUDY    49  27  42 NW20G29   29.94F
Great Falls    CLOUDY    44  34  67 NW18      29.71R
Calgary        PTSUNNY   46  32  57 NE13G20   29.72R



USA.gov is the U.S. government's official web portal to all federal, state and local government web resources and services.